Home > Weather > Almere > Past weeks

Flag for Netherlands Weather for the Past 2 Weeks in Almere, Netherlands

Now
61 °F

Passing clouds.


Feels Like: 61 °F
Forecast: 45 / 63 °F
Wind: 5 mph from Southwest

Location: Amsterdam Schiphol Airport

Current Time: May 4, 2016 at 4:06:01 PM

Latest Report: May 4, 2016 at 3:25 PM


Visibility: N/A

Pressure: 30.36 "Hg

Humidity: 42%

Dew Point: 37 °F

Location of AlmereLocation

Historic Weather in Almere — Graph

°F

Almere Temperature Yesterday

Maximum temperature yesterday: 54 °F (at 12:25 AM)
Minimum temperature yesterday: 45 °F (at 9:55 PM)
Average temperature yesterday: 50 °F

High & Low Weather Summary for the Past Weeks

 TemperatureHumidityPressure
High63 °F (May 2, 2:55 PM)100% (Apr 28, 5:25 AM)30.48 "Hg (Apr 28, 5:25 AM)
Low34 °F (Apr 25, 3:25 AM)34% (May 2, 2:55 PM)29.42 "Hg (Apr 26, 5:55 AM)
Average46 °F73%30.05 "Hg
* Reported Apr 19 2:55 PM — May 4 2:25 PM, Almere, Weather by CustomWeather, © 2016

Note: Actual official high and low records may vary slightly from our data, if they occured in-between our weather recording intervals... More about our weather records

Advertising

Almere Weather History for the Previous 24 Hours

Scroll right to see more
 ConditionsComfort  
Time TempWeatherWind HumidityBarometerVisibility
2:25 PM
Wed, May 4
59 °FPassing clouds.8 mph48%30.39 "HgN/A
1:25 PM57 °FPassing clouds.9 mph55%30.39 "HgN/A
12:55 PM59 °FPassing clouds.9 mph55%30.39 "HgN/A
12:25 PM57 °FPassing clouds.10 mph55%30.39 "HgN/A
11:55 AM57 °FPassing clouds.10 mph59%30.39 "HgN/A
11:25 AM55 °FPassing clouds.9 mph59%30.39 "HgN/A
10:55 AM55 °FPassing clouds.9 mph55%30.39 "HgN/A
9:55 AM54 °FPassing clouds.8 mph67%30.39 "HgN/A
9:25 AM52 °FPassing clouds.7 mph72%30.39 "HgN/A
8:55 AM50 °FPassing clouds.6 mph76%30.39 "HgN/A
8:25 AM48 °FSunny.5 mph82%30.39 "Hg10 mi
7:55 AM46 °FSunny.3 mph87%30.39 "Hg10 mi
6:55 AM41 °FClear.3 mph87%30.36 "Hg10 mi
6:25 AM39 °FClear.5 mph93%30.36 "Hg10 mi
5:55 AM41 °FClear.3 mph93%30.36 "Hg10 mi
5:25 AM37 °FFog.3 mph93%30.36 "HgN/A
4:55 AM41 °FFog.3 mph93%30.36 "HgN/A
4:25 AM41 °FFog.2 mph93%30.36 "HgN/A
3:55 AM41 °FFog.2 mph93%30.36 "HgN/A
3:25 AM41 °FClear.2 mph100%30.36 "Hg10 mi
2:55 AM43 °FClear.2 mph93%30.36 "Hg10 mi
2:25 AM43 °FClear.2 mph93%30.36 "Hg10 mi
1:55 AM43 °FClear.3 mph87%30.36 "Hg10 mi
1:25 AM43 °FClear.3 mph93%30.36 "Hg10 mi
12:55 AM45 °FClear.5 mph87%30.36 "Hg10 mi
12:25 AM43 °FClear.3 mph87%30.36 "Hg10 mi
11:55 PM
Tue, May 3
45 °FClear.2 mph87%30.36 "Hg10 mi
11:25 PM45 °FClear.5 mph81%30.36 "Hg10 mi
10:55 PM45 °FClear.2 mph81%30.36 "Hg10 mi
10:25 PM45 °FPassing clouds.5 mph81%30.33 "HgN/A
9:55 PM45 °FSunny.6 mph87%30.33 "Hg10 mi
9:25 PM46 °FPassing clouds.7 mph76%30.33 "HgN/A
8:55 PM48 °FSunny.7 mph76%30.33 "Hg10 mi
8:25 PM48 °FPassing clouds.7 mph71%30.30 "HgN/A
7:55 PM50 °FSunny.7 mph62%30.30 "Hg10 mi
7:25 PM52 °FPassing clouds.9 mph58%30.30 "HgN/A
6:55 PM52 °FPassing clouds.9 mph58%30.30 "HgN/A
6:25 PM52 °FPassing clouds.12 mph58%30.30 "HgN/A
5:55 PM52 °FPassing clouds.12 mph62%30.30 "HgN/A
5:25 PM54 °FPassing clouds.13 mph63%30.30 "HgN/A
4:55 PM54 °FPassing clouds.12 mph63%30.27 "HgN/A
4:25 PM52 °FPassing clouds.14 mph67%30.27 "HgN/A
Weather by CustomWeather, © 2016

See weather overviewHow to use our weather pages